Change the Weather History Date:

Friday, December 7, 2012

  Actual Average (KLTS) Record (KLTS)
Temperature  
Mean Temperature 48 °F -  
Max Temperature 57 °F 53 °F 69 °F (2008)
Min Temperature 40 °F 30 °F 4 °F (2013)
Degree Days  
Heating Degree Days 16    
Moisture  
Dew Point 35 °F    
Average Humidity 63    
Maximum Humidity 81    
Minimum Humidity 51    
Precipitation  
Precipitation 0.00 in - - ()
Sea Level Pressure  
Sea Level Pressure 29.88 in    
Wind  
Wind Speed 8 mph (NNW)    
Max Wind Speed 13 mph    
Max Gust Speed 16 mph    
Visibility 10 miles    
Events      
Averages and records for this station are not official NWS values.
T = Trace of Precipitation, MM = Missing Value Source: NWS Daily Summary

Daily Weather History Graph

Daily Weather History Graph

Search for Another Location

Airport or City:

Trip Planner

Search our weather history database for the weather conditions in past years. The results will help you decide how hot, cold, wet, or windy it might be!

Date:

Astronomy

Dec. 07, 2012 Rise Set
Actual Time 7:30 AM CST 5:27 PM CST
Civil Twilight 7:02 AM CST 5:54 PM CST
Nautical Twilight 6:31 AM CST 6:26 PM CST
Astronomical Twilight 6:01 AM CST 6:56 PM CST
Moon 1:05 AM CST (12/7) 1:12 PM CST (12/7)
Length of Visible Light 10h 52m
Length of Day
9h 56m
Last Quarter, 38% of the Moon is Illuminated
Dec 7
Last Quarter
Dec 13
New
Dec 19
First Quarter
Dec 28
Full
Jan 4
Last Quarter

Hourly Weather History & Observations

Time (CST) Temp. Windchill Dew Point Humidity Pressure Visibility Wind Dir Wind Speed Gust Speed Precip Events Conditions
12:15 AM 48.2 °F - 34.3 °F 59% 29.87 in 10.0 mi NNW 8.1 mph - N/A   Clear
12:35 AM 48.4 °F - 35.1 °F 60% 29.87 in 10.0 mi NNW 9.2 mph - N/A   Clear
12:55 AM 47.5 °F - 35.1 °F 62% 29.87 in 10.0 mi NNW 10.4 mph - N/A   Clear
1:15 AM 46.2 °F 41.2 °F 34.9 °F 65% 29.87 in 10.0 mi NW 10.4 mph - N/A   Clear
1:35 AM 45.9 °F 40.8 °F 34.7 °F 65% 29.86 in 10.0 mi NW 10.4 mph - N/A   Clear
1:55 AM 45.7 °F 39.8 °F 34.7 °F 65% 29.87 in 10.0 mi NW 12.7 mph - N/A   Clear
2:15 AM 45.7 °F 39.8 °F 34.9 °F 66% 29.87 in 10.0 mi NW 12.7 mph - N/A   Clear
2:35 AM 45.7 °F 41.0 °F 34.7 °F 65% 29.89 in 10.0 mi NW 9.2 mph - N/A   Clear
2:55 AM 45.5 °F 39.6 °F 34.2 °F 65% 29.88 in 10.0 mi NNW 12.7 mph 16.1 mph N/A   Clear
3:15 AM 45.5 °F 39.6 °F 34.2 °F 65% 29.88 in 10.0 mi NNW 12.7 mph - N/A   Clear
3:35 AM 45.5 °F 40.8 °F 34.0 °F 64% 29.88 in 10.0 mi NNW 9.2 mph - N/A   Clear
3:55 AM 44.8 °F 40.4 °F 33.4 °F 64% 29.88 in 10.0 mi NNW 8.1 mph - N/A   Clear
4:15 AM 43.9 °F 39.3 °F 32.4 °F 64% 29.88 in 10.0 mi NNW 8.1 mph - N/A   Clear
4:35 AM 43.3 °F 38.6 °F 32.0 °F 64% 29.87 in 10.0 mi NW 8.1 mph - N/A   Clear
4:55 AM 43.0 °F 37.7 °F 31.8 °F 65% 29.86 in 10.0 mi North 9.2 mph - N/A   Clear
5:15 AM 43.2 °F 39.0 °F 32.0 °F 65% 29.86 in 10.0 mi NW 6.9 mph - N/A   Clear
5:35 AM 42.4 °F 38.8 °F 31.6 °F 66% 29.87 in 10.0 mi NW 5.8 mph - N/A   Clear
6:15 AM 41.2 °F 37.3 °F 30.9 °F 67% 29.88 in 10.0 mi NW 5.8 mph - N/A   Clear
6:35 AM 41.2 °F 36.0 °F 30.9 °F 67% 29.88 in 10.0 mi NW 8.1 mph - N/A   Clear
6:55 AM 40.5 °F 34.6 °F 30.7 °F 68% 29.88 in 10.0 mi NW 9.2 mph - N/A   Clear
7:15 AM 40.3 °F 34.4 °F 30.7 °F 69% 29.89 in 10.0 mi NNW 9.2 mph - N/A   Clear
7:35 AM 40.6 °F 34.8 °F 30.9 °F 68% 29.88 in 10.0 mi NNW 9.2 mph - N/A   Clear
7:55 AM 41.4 °F 36.2 °F 31.3 °F 67% 29.89 in 10.0 mi NW 8.1 mph - N/A   Clear
8:15 AM 42.4 °F 37.5 °F 31.8 °F 66% 29.89 in 10.0 mi NW 8.1 mph - N/A   Clear
8:35 AM 44.1 °F 39.0 °F 32.0 °F 63% 29.91 in 10.0 mi NW 9.2 mph - N/A   Clear
8:55 AM 45.7 °F 40.6 °F 32.5 °F 60% 29.90 in 10.0 mi NNW 10.4 mph - N/A   Clear
9:15 AM 47.1 °F - 33.1 °F 58% 29.91 in 10.0 mi NNW 10.4 mph - N/A   Clear
9:35 AM 49.1 °F - 34.2 °F 56% 29.91 in 10.0 mi North 10.4 mph - N/A   Clear
9:55 AM 50.4 °F - 35.1 °F 56% 29.93 in 10.0 mi NNW 9.2 mph - N/A   Clear
10:15 AM 50.4 °F - 35.1 °F 56% 29.93 in 10.0 mi NNW 10.4 mph - N/A   Clear
10:35 AM 50.0 °F - 34.5 °F 55% 29.92 in 10.0 mi NW 9.2 mph - N/A   Clear
10:55 AM 49.8 °F - 34.7 °F 56% 29.92 in 10.0 mi NNW 8.1 mph - N/A   Clear
11:15 AM 50.0 °F - 35.1 °F 57% 29.91 in 10.0 mi North 5.8 mph - N/A   Clear
11:35 AM 50.7 °F - 35.6 °F 56% 29.90 in 10.0 mi NNW 5.8 mph - N/A   Clear
11:55 AM 51.3 °F - 35.8 °F 55% 29.89 in 10.0 mi NW 8.1 mph - N/A   Clear
12:15 PM 51.8 °F - 36.1 °F 55% 29.89 in 10.0 mi NNW 9.2 mph - N/A   Clear
12:35 PM 52.0 °F - 36.3 °F 55% 29.88 in 10.0 mi NNW 9.2 mph - N/A   Clear
12:55 PM 52.3 °F - 36.5 °F 55% 29.87 in 10.0 mi NW 8.1 mph - N/A   Clear
1:15 PM 52.5 °F - 36.7 °F 55% 29.86 in 10.0 mi NNW 5.8 mph - N/A   Clear
1:35 PM 52.9 °F - 36.9 °F 55% 29.85 in 10.0 mi NNW 5.8 mph - N/A   Clear
1:55 PM 53.6 °F - 37.4 °F 54% 29.84 in 10.0 mi NW 6.9 mph - N/A   Clear
2:15 PM 54.0 °F - 37.9 °F 55% 29.83 in 10.0 mi NNW 3.5 mph - N/A   Clear
2:35 PM 54.5 °F - 38.5 °F 55% 29.83 in 10.0 mi NW 5.8 mph - N/A   Clear
2:55 PM 55.0 °F - 38.7 °F 54% 29.83 in 10.0 mi NW 3.5 mph - N/A   Clear
3:15 PM 55.4 °F - 39.0 °F 54% 29.83 in 10.0 mi West 3.5 mph - N/A   Clear
3:35 PM 55.8 °F - 39.2 °F 54% 29.83 in 10.0 mi Calm Calm - N/A   Clear
3:55 PM 56.5 °F - 39.2 °F 52% 29.83 in 10.0 mi WNW 3.5 mph - N/A   Clear
4:15 PM 57.0 °F - 39.2 °F 51% 29.82 in 10.0 mi Calm Calm - N/A   Clear
4:35 PM 56.7 °F - 39.4 °F 52% 29.83 in 10.0 mi Calm Calm - N/A   Clear
4:55 PM 56.5 °F - 39.6 °F 53% 29.84 in 10.0 mi Calm Calm - N/A   Clear
5:15 PM 56.1 °F - 39.4 °F 53% 29.84 in 10.0 mi Calm Calm - N/A   Clear
5:35 PM 54.7 °F - 39.6 °F 57% 29.84 in 10.0 mi Calm Calm - N/A   Clear
5:55 PM 52.3 °F - 38.7 °F 60% 29.84 in 10.0 mi SSE 3.5 mph - N/A   Clear
6:15 PM 51.1 °F - 38.5 °F 62% 29.85 in 10.0 mi SSE 3.5 mph - N/A   Clear
6:35 PM 50.7 °F - 38.3 °F 62% 29.86 in 10.0 mi SE 3.5 mph - N/A   Clear
7:35 PM 48.4 °F - 37.9 °F 67% 29.88 in 10.0 mi Calm Calm - N/A   Clear
8:35 PM 43.3 °F 40.7 °F 34.5 °F 71% 29.89 in 10.0 mi ENE 4.6 mph - N/A   Clear
8:55 PM 43.7 °F - 34.5 °F 70% 29.90 in 10.0 mi Calm Calm - N/A   Clear
9:15 PM 43.3 °F - 35.8 °F 75% 29.91 in 10.0 mi Calm Calm - N/A   Clear
9:35 PM 43.2 °F - 35.8 °F 75% 29.91 in 10.0 mi Calm Calm - N/A   Clear
9:55 PM 43.0 °F - 36.0 °F 76% 29.91 in 10.0 mi Calm Calm - N/A   Clear
10:15 PM 44.4 °F - 37.0 °F 75% 29.91 in 10.0 mi Calm Calm - N/A   Clear
10:35 PM 41.9 °F - 35.2 °F 77% 29.91 in 10.0 mi Calm Calm - N/A   Clear
10:55 PM 40.5 °F 38.4 °F 34.3 °F 79% 29.92 in 10.0 mi NNE 3.5 mph - N/A   Clear
11:15 PM 41.2 °F 37.3 °F 35.8 °F 81% 29.92 in 10.0 mi NNE 5.8 mph - N/A   Clear
11:35 PM 41.4 °F 36.2 °F 36.0 °F 81% 29.92 in 10.0 mi NE 8.1 mph - N/A   Clear
11:55 PM 40.1 °F 35.3 °F 34.2 °F 79% 29.93 in 10.0 mi NNE 6.9 mph - N/A   Clear